LPR6 EPKX-EPKX

Flight info

Callsign LPR6
Flight time 0h 15m
Altitude 2000
Route DCT
Aircraft EC35/L-S/C

Departure

Time 2026-04-24 19:11
Airport Kokotowie LPR HEMS Heliport (EPKX)

Arrival

Time 2026-04-24 19:27
Airport Kokotowie LPR HEMS Heliport (EPKX)
Time Latitude Longitude Altitude Speed Heading
2026-04-24 18:58 50.02238 20.07033 651 ft 0 kts 150°
2026-04-24 19:06 50.02237 20.07033 649 ft 0 kts 149°
2026-04-24 19:07 50.02239 20.07019 660 ft 4 kts 142°
2026-04-24 19:07 50.02241 20.06912 835 ft 17 kts 272°
2026-04-24 19:07 50.02292 20.06732 986 ft 44 kts 277°
2026-04-24 19:07 50.02526 20.05760 1045 ft 87 kts 291°
2026-04-24 19:08 50.02661 20.05193 1142 ft 81 kts 287°
2026-04-24 19:08 50.02821 20.04369 1230 ft 78 kts 283°
2026-04-24 19:08 50.03037 20.03300 1178 ft 75 kts 283°
2026-04-24 19:08 50.03120 20.02772 1175 ft 75 kts 281°
2026-04-24 19:09 50.03248 20.01977 1114 ft 77 kts 281°
2026-04-24 19:09 50.03364 20.01180 1123 ft 74 kts 277°
2026-04-24 19:09 50.03459 20.00444 1119 ft 60 kts 276°
2026-04-24 19:09 50.03534 19.99858 1120 ft 55 kts 273°
2026-04-24 19:10 50.03620 19.99302 1059 ft 49 kts 275°
2026-04-24 19:10 50.03688 19.98801 978 ft 49 kts 270°
2026-04-24 19:10 50.03719 19.98265 1061 ft 51 kts 274°
2026-04-24 19:10 50.03774 19.97709 1162 ft 53 kts 274°
2026-04-24 19:11 50.03833 19.97124 1180 ft 57 kts 273°
2026-04-24 19:11 50.03929 19.96494 1123 ft 61 kts 278°
2026-04-24 19:11 50.04042 19.95826 1247 ft 66 kts 282°
2026-04-24 19:11 50.04145 19.95114 1341 ft 69 kts 279°
2026-04-24 19:12 50.04207 19.94354 1416 ft 72 kts 276°
2026-04-24 19:12 50.04327 19.93532 1379 ft 87 kts 282°
2026-04-24 19:12 50.04502 19.92552 1314 ft 99 kts 284°
2026-04-24 19:12 50.04642 19.91506 1287 ft 99 kts 276°
2026-04-24 19:13 50.04713 19.90773 1301 ft 106 kts 278°
2026-04-24 19:13 50.04919 19.89248 1348 ft 110 kts 282°
2026-04-24 19:13 50.05125 19.88094 1384 ft 111 kts 285°
2026-04-24 19:13 50.05368 19.86966 1430 ft 111 kts 287°
2026-04-24 19:14 50.05643 19.85866 1532 ft 99 kts 289°
2026-04-24 19:14 50.05747 19.84847 1607 ft 106 kts 268°
2026-04-24 19:14 50.05832 19.83658 1600 ft 104 kts 279°
2026-04-24 19:14 50.05960 19.82733 1689 ft 96 kts 285°
2026-04-24 19:15 50.06055 19.81754 1624 ft 90 kts 281°
2026-04-24 19:15 50.06078 19.80797 1512 ft 89 kts 266°
2026-04-24 19:15 50.06009 19.79831 1442 ft 90 kts 258°
2026-04-24 19:15 50.05816 19.78883 1347 ft 93 kts 248°
2026-04-24 19:16 50.05411 19.77053 1257 ft 83 kts 250°
2026-04-24 19:16 50.05261 19.76289 1221 ft 63 kts 276°
2026-04-24 19:16 50.05336 19.75888 785 ft 16 kts 265°
2026-04-24 19:17 50.05365 19.75869 723 ft 10 kts 273°
2026-04-24 19:17 50.05376 19.75815 712 ft 2 kts 271°
2026-04-24 19:17 50.05376 19.75814 711 ft 0 kts 270°
2026-04-24 19:22 50.05380 19.75818 720 ft 1 kts 268°
2026-04-24 19:22 50.05351 19.75785 721 ft 9 kts 267°
2026-04-24 19:23 50.05356 19.75708 886 ft 3 kts 275°
2026-04-24 19:23 50.05305 19.75692 1015 ft 19 kts 55°
2026-04-24 19:23 50.05278 19.75686 1236 ft 19 kts 55°
2026-04-24 19:23 50.05382 19.76038 1474 ft 54 kts 60°
2026-04-24 19:24 50.05544 19.76729 1826 ft 80 kts 68°
2026-04-24 19:24 50.05709 19.77665 2036 ft 97 kts 70°
2026-04-24 19:24 50.05869 19.78700 2217 ft 108 kts 69°
2026-04-24 19:24 50.06040 19.79933 2241 ft 126 kts 71°
2026-04-24 19:25 50.06264 19.81272 1655 ft 116 kts 54°
2026-04-24 19:25 50.06572 19.82304 1735 ft 107 kts 61°
2026-04-24 19:25 50.06921 19.83531 1550 ft 128 kts 62°
2026-04-24 19:25 50.07249 19.84899 1352 ft 137 kts 66°
2026-04-24 19:26 50.07533 19.86233 1376 ft 129 kts 68°
2026-04-24 19:26 50.07797 19.87608 1297 ft 133 kts 69°
2026-04-24 19:26 50.08047 19.89017 1197 ft 135 kts 70°
2026-04-24 19:26 50.08339 19.90357 1234 ft 125 kts 65°
2026-04-24 19:27 50.08666 19.91576 1280 ft 114 kts 64°
2026-04-24 19:27 50.08858 19.92556 1406 ft 78 kts 66°
2026-04-24 19:27 50.08990 19.93189 1060 ft 49 kts 48°
2026-04-24 19:27 50.09080 19.93562 913 ft 27 kts 43°
2026-04-24 19:28 50.09104 19.93670 837 ft 8 kts 41°
2026-04-24 19:28 50.09102 19.93656 808 ft 1 kts 49°
2026-04-24 19:28 50.09113 19.93667 808 ft 3 kts 52°
2026-04-24 19:28 50.09118 19.93675 803 ft 1 kts 48°
2026-04-24 19:29 50.09110 19.93663 802 ft 0 kts 49°
2026-04-24 19:31 50.09113 19.93676 812 ft 4 kts 40°
2026-04-24 19:32 50.09082 19.93782 1093 ft 27 kts 114°
2026-04-24 19:32 50.08810 19.93946 1526 ft 57 kts 149°
2026-04-24 19:32 50.08491 19.94680 1510 ft 107 kts 120°
2026-04-24 19:32 50.08039 19.95723 1433 ft 123 kts 124°
2026-04-24 19:33 50.07482 19.96778 1428 ft 125 kts 129°
2026-04-24 19:33 50.06903 19.97755 1384 ft 122 kts 133°
2026-04-24 19:33 50.06252 19.98664 1213 ft 127 kts 137°
2026-04-24 19:33 50.05601 19.99514 1220 ft 113 kts 139°
2026-04-24 19:34 50.05010 20.00276 1246 ft 110 kts 136°
2026-04-24 19:34 50.04500 20.01107 1261 ft 108 kts 132°
2026-04-24 19:34 50.03965 20.01976 1216 ft 113 kts 128°
2026-04-24 19:34 50.03441 20.02917 1294 ft 120 kts 131°
2026-04-24 19:35 50.02875 20.03886 1373 ft 122 kts 130°
2026-04-24 19:35 50.02389 20.04966 1426 ft 121 kts 121°
2026-04-24 19:35 50.01915 20.06067 1421 ft 109 kts 115°
2026-04-24 19:35 50.01962 20.06898 1396 ft 58 kts 30°
2026-04-24 19:36 50.02224 20.07051 933 ft 30 kts 273°
2026-04-24 19:36 50.02340 20.07134 810 ft 11 kts 206°
2026-04-24 19:36 50.02270 20.07041 701 ft 7 kts 207°
2026-04-24 19:36 50.02257 20.07041 668 ft 4 kts 217°
2026-04-24 19:37 50.02243 20.07040 658 ft 1 kts 220°
2026-04-24 19:37 50.02240 20.07035 651 ft 0 kts 216°